Maxwell AFB, AL

4:18 PM CDT on September 24, 2017 (GMT -0500)
Maxwell Air Force Base

Weather History for KMXF - May, 2017

Change the Weather History Date:

Friday, May 19, 2017

  Actual Average Record
Temperature  
Mean Temperature 80 °F -  
Max Temperature 91 °F 84 °F 93 °F (1998)
Min Temperature 69 °F 63 °F 46 °F (2002)
Cooling Degree Days 15    
Growing Degree Days 30 (Base 50)    
Moisture  
Dew Point 68 °F    
Average Humidity 68    
Maximum Humidity 100    
Minimum Humidity 38    
Precipitation  
Precipitation 0.00 in - - ()
Sea Level Pressure  
Sea Level Pressure 30.03 in    
Wind  
Wind Speed 4 mph (SE)    
Max Wind Speed 14 mph    
Max Gust Speed -    
Visibility 10 miles    
Events      
Averages and records for this station are not official NWS values.
T = Trace of Precipitation, MM = Missing Value Source: NWS Daily Summary

Daily Weather History Graph

Daily Weather History Graph

Search for Another Location

Airport or City:

Trip Planner

Search our weather history database for the weather conditions in past years. The results will help you decide how hot, cold, wet, or windy it might be!

Date:

Astronomy

May. 19, 2017 Rise Set
Actual Time 5:44 AM CDT 7:39 PM CDT
Civil Twilight 5:17 AM CDT 8:06 PM CDT
Nautical Twilight 4:44 AM CDT 8:40 PM CDT
Astronomical Twilight 4:09 AM CDT 9:15 PM CDT
Moon 1:40 AM CDT (5/19) 1:08 PM CDT (5/19)
Length of Visible Light 14h 49m
Length of Day
13h 54m
Last Quarter, 43% of the Moon is Illuminated
May 19
Last Quarter
May 25
New
Jun 1
First Quarter
Jun 9
Full
Jun 17
Last Quarter

Hourly Weather History & Observations

Time (CDT) Temp. Heat Index Dew Point Humidity Pressure Visibility Wind Dir Wind Speed Gust Speed Precip Events Conditions
12:58 AM 71.1 °F - 71.1 °F 100% 30.01 in 10.0 mi Calm Calm - N/A   Clear
1:58 AM 70.7 °F - 70.7 °F 100% 30.01 in 10.0 mi Calm Calm - N/A   Clear
2:58 AM 70.0 °F - 70.0 °F 100% 30.02 in 10.0 mi Calm Calm - 0.00 in   Clear
3:58 AM 70.7 °F - 70.7 °F 100% 30.04 in 10.0 mi East 5.8 mph - N/A   Partly Cloudy
4:58 AM 70.3 °F - 69.1 °F 96% 30.06 in 10.0 mi Calm Calm - N/A   Clear
5:58 AM 69.3 °F - 69.3 °F 100% 30.06 in 7.0 mi North 3.5 mph - N/A   Clear
6:58 AM 72.1 °F - 71.4 °F 98% 30.09 in 10.0 mi East 3.5 mph - N/A   Clear
7:58 AM 76.6 °F - 69.8 °F 79% 30.09 in 10.0 mi SE 6.9 mph - N/A   Clear
8:58 AM 79.5 °F - 68.5 °F 69% 30.09 in 10.0 mi SSE 8.1 mph - N/A   Clear
9:58 AM 81.3 °F 84.8 °F 69.8 °F 68% 30.08 in 10.0 mi SSE 5.8 mph - N/A   Clear
10:58 AM 84.4 °F 89.4 °F 70.9 °F 64% 30.06 in 10.0 mi Calm Calm - N/A   Clear
11:58 AM 85.8 °F 90.1 °F 69.6 °F 58% 30.06 in 10.0 mi SE 4.6 mph - N/A   Clear
12:58 PM 88.2 °F 92.9 °F 69.4 °F 54% 30.04 in 10.0 mi SE 8.1 mph - N/A   Clear
1:58 PM 90.0 °F 94.5 °F 69.3 °F 50% 30.01 in 10.0 mi SE 4.6 mph - N/A   Clear
2:58 PM 90.5 °F 95.1 °F 69.1 °F 49% 30.00 in 10.0 mi ESE 9.2 mph - N/A   Partly Cloudy
3:58 PM 91.9 °F 96.4 °F 68.4 °F 46% 29.98 in 10.0 mi SE 13.8 mph - N/A   Scattered Clouds
4:58 PM 91.4 °F 93.2 °F 64.9 °F 41% 29.98 in 10.0 mi SSE 10.4 mph - N/A   Partly Cloudy
5:58 PM 89.8 °F 89.7 °F 60.8 °F 38% 29.98 in 10.0 mi SSE 10.4 mph - N/A   Partly Cloudy
6:58 PM 86.7 °F 86.1 °F 58.8 °F 39% 29.98 in 10.0 mi SSE 9.2 mph - N/A   Clear
7:58 PM 83.5 °F 84.5 °F 62.8 °F 50% 29.99 in 10.0 mi ESE 9.2 mph - N/A   Clear
8:58 PM 82.8 °F 84.5 °F 64.9 °F 55% 30.01 in 10.0 mi SE 8.1 mph - N/A   Partly Cloudy
9:58 PM 81.0 °F 83.0 °F 65.8 °F 60% 30.03 in 10.0 mi ESE 5.8 mph - N/A   Clear
10:58 PM 80.1 °F 82.1 °F 66.0 °F 62% 30.03 in 10.0 mi ESE 5.8 mph - N/A   Clear
11:58 PM 79.5 °F - 65.5 °F 62% 30.01 in 10.0 mi East 4.6 mph - N/A   Clear